Погода в Хохольском

Россия / Воронежская область     51°34′40″N   38°47′11″E
темп.,
°C
ветер,
м/с
пор.,
м/с
влажн.,
%
обл.,
%
осадки,
мм/ч
давл.,
гПа
погр.,
м
24 октября, вс
вс2400:00+5з510704 0.0 1017375
03:00+3з410807 0.0 1018291
06:00+2зюз498218 0.0 1018218
09:00+4зюз611675 0.0 1019392
12:00+9з794694 0.0 10191687
15:00+8зсз7952100 0.0 10191724
18:00+5зсз5863100 0.0 1021937
21:00+4сз6108299 0.1 1022787
25 октября, пн
пн2500:00+2сз611745 0.1 1023568
03:00+1ссз611745 0.1 1025616
06:00−1ссз510865 0.0 1028371
09:00+1ссз58755 0.0 1030454
12:00+4ссз454898 0.0 10311003
15:00+5ссз454233 0.0 10311149
18:00+2сз22555 0.0 103218
21:00+1зсз22605 0.0 103212
26 октября, вт
вт2600:000зюз22660 0.0 103327
03:00−1зюз35725 0.0 103377
06:00−2зюз36755 0.0 103390
09:00+1зюз476298 0.0 1032230
12:00+6зюз5742100 0.0 1031589
15:00+8зюз573753 0.0 1030791
18:00+4юз47495 0.0 1029115
21:00+2юз395446 0.0 1029142
27 октября, ср
ср2700:00+1юз495412 0.0 1029159
03:00+1юз39559 0.0 1029155
06:000юз410565 0.0 1028168
09:00+3юз511450 0.0 1028293
12:00+8юз79300 0.0 1026676
15:00+10юз69280 0.0 1024919
18:00+5юз41040100 0.0 1023179
21:00+4зюз3940100 0.0 1023164
28 октября, чт
чт2800:00+4з385299 0.0 1023156
03:00+3зсз3582100 0.0 102387
06:00+4зсз368248 0.0 1024178
09:00+5сз36785 0.0 1025199
12:00+9зсз345631 0.0 10251035
15:00+9зсз565368 0.0 10241307
18:00+7сз2262100 0.0 102531
21:00+5з2267100 0.0 102511